Wenatchee, WA
on Wednesday, November 21, 2012

Wednesday
Previous Day Next Day
Daily Summary
 ActualAverageRecord
Temperature
Mean Temperature °F 32°F  
Max Temperature 45°F 38°F 56°F (1965)
Min Temperature 32°F 26°F 7°F (1985)
Degree Days
Heating Degree Days 26 33  
Month to date heating degree days 545 613  
Since 1 July heating degree days 1344 1569  
Cooling Degree Days 0 0  
Month to date cooling degree days 0 0  
Year to date cooling degree days 294 249  
Moisture
Dew Point 31°F   
Average Humidity 70    
Maximum Humidity 93    
Minimum Humidity 38    
Precipitation
Precipitation 0.33 in 0.08 in 0.34 in (1992)
Month to date precipitation 2.83 1.48  
Year to date precipitation 19.93 13.82  
Snow
Snow T in 0.40 in in ()
Month to date snowfall 7.2 4.0  
Since 1 July snowfall 7.2 4.1  
Since 1 September snowfall 7.2 4.1  
Snow Depth 0.00 in   
Wind
Wind Speed 6 mph   
Max Wind Speed 22 mph   
Max Gust Speed 30 mph   
Visibility 8 miles   
Events Fog   

Key: T is trace of precipitation, MM is missing value
Source: NWS Daily Summary
Time(PST)TemperatureDew PointHumidity Pressure Visibility Wind DirectionWind SpeedGust SpeedPrecipitationEvents Conditions
12:55 AM 39.9°F 36.0°F 86% 29.63 in 10.0 miles ESE 3.5 mph - N/A   Overcast
1:55 AM 37.0°F 34.0°F 89% 29.60 in 9.0 miles South 3.5 mph - N/A   Clear
2:55 AM 37.0°F 34.0°F 89% 29.60 in 6.0 miles North 3.5 mph - N/A   Mostly Cloudy
4:55 AM 37.9°F 35.1°F 89% 29.62 in 10.0 miles WSW 4.6 mph - N/A   Overcast
5:55 AM 37.0°F 34.0°F 89% 29.63 in 6.0 miles WNW 8.1 mph - 0.00 in   Partly Cloudy
6:04 AM 37.4°F 33.8°F 87% 29.61 in 1.8 miles NW 10.4 mph 18.4 mph N/A   Mostly Cloudy
6:11 AM 37.4°F 35.6°F 93% 29.61 in 3.0 miles NE 3.5 mph - N/A   Mostly Cloudy
6:55 AM 39.0°F 34.0°F 82% 29.63 in 10.0 miles Calm Calm - N/A   Clear
7:55 AM 37.0°F 34.0°F 89% 29.67 in 10.0 miles NW 3.5 mph - N/A   Partly Cloudy
8:30 AM 37.4°F 33.8°F 87% 29.68 in 0.8 miles Calm Calm - N/A   Partly Cloudy
8:37 AM 39.2°F 35.6°F 87% 29.68 in 0.5 miles West 4.6 mph - N/A Fog Fog
8:41 AM 39.2°F 35.6°F 87% 29.68 in 1.8 miles Calm Calm - N/A   Haze
8:48 AM 42.8°F 33.8°F 70% 29.68 in 10.0 miles Calm Calm - N/A   Partly Cloudy
8:55 AM 43.0°F 35.1°F 74% 29.71 in 10.0 miles Calm Calm - N/A   Partly Cloudy
9:55 AM 48.0°F 28.9°F 48% 29.74 in 10.0 miles NW 11.5 mph - N/A   Clear
10:55 AM 50.0°F 25.0°F 38% 29.78 in 10.0 miles West 18.4 mph 24.2 mph N/A   Clear
11:55 AM 50.0°F 25.0°F 38% 29.80 in 10.0 miles West 21.9 mph 29.9 mph N/A   Clear
12:55 PM 50.0°F 27.0°F 41% 29.82 in 10.0 miles WNW 17.3 mph 24.2 mph N/A   Clear
1:55 PM 48.0°F 28.0°F 46% 29.86 in 10.0 miles West 13.8 mph - N/A   Partly Cloudy
2:55 PM 46.9°F 26.1°F 44% 29.90 in 10.0 miles WSW 11.5 mph 21.9 mph N/A   Partly Cloudy
3:55 PM 46.0°F 23.0°F 40% 29.94 in 10.0 miles WSW 21.9 mph 29.9 mph N/A   Partly Cloudy
4:55 PM 43.0°F 27.0°F 53% 29.97 in 10.0 miles NNW 5.8 mph - N/A   Partly Cloudy
5:55 PM 41.0°F 28.0°F 60% 30.00 in 10.0 miles NNW 5.8 mph - N/A   Clear
6:55 PM 36.0°F 28.9°F 76% 30.03 in 10.0 miles WNW 5.8 mph - N/A   Clear
8:55 PM 39.9°F 30.9°F 70% 30.10 in 10.0 miles NW 19.6 mph - N/A   Clear
9:55 PM 39.0°F 30.9°F 73% 30.13 in 10.0 miles NW 16.1 mph - N/A   Clear
10:55 PM 37.9°F 30.9°F 76% 30.18 in 10.0 miles ENE 8.1 mph - N/A   Mostly Cloudy
11:55 PM 39.0°F 30.9°F 73% 30.21 in 10.0 miles Calm Calm - N/A   Scattered Clouds
Moon Phase
Nov. 21 Nov. 28 Dec. 06 Dec. 13 Dec. 20
Sunrise:07:14 AM (PST) Moon Rise:01:00 PM (PST)11/21
Sunset:04:18 PM (PST) Moon Set:12:13 AM (PST)11/21

Copyright © 2014 The Weather Underground, Inc.